Etusivu
METAR-TAF:

METAR-TAF

Lentoasemat :

New Ulm Municipal Airport

New Ulm, Minnesota, Yhdysvallat

Leveyspiiri: 44-19N, Pituuspiiri: 094-30W, korkeus merenpinnasta: 308 m

Tämänhetkinen sää

Tämä raportti tehtiin 16 minuuttia sitten, kello 16.15 UTC
Tuuli 8 kn etelästä/kaakosta
Lämpötila 3°C
Kosteus 87%
Ilmanpaine 1006 hPa
Näkyvyys: 16.1 km
Hajanaisia pilviä 800 ft:n korkeudessa
Pilvistä 8500 ft:n korkeudessa

METAR: KULM 181615Z AUTO 15008KT 10SM SCT008 OVC085 03/01 A2970 RMK AO2

Aika: 10:31 (16:31 UTC)


TAF: puuttuu

Säähavainnot ja -ennusteet yli 4000 lentoasemalta (METAR- ja TAF-raportit).

Käytössä olevat sääasemat on merkitty karttaan keltaisilla ja punaisilla pisteillä.

Aseta hiiri pisteen päälle nähdäksesi sääaseman nimen.

Klikkaa sitten nähdäksesi säähavainnot ja -ennusteet.

Kartan vaihtaminen: klikkaa mustalla rastilla varustettuja vihreitä pisteitä, niin voit zoomata sisään; viivalla varustettua vihreää pistettä, niin voit zoomata ulos tai vihreitä nuolia, niin pääset viereisille kartoille.


METAR-TAF: